Wind_Speed
8 7 7 7 6 6 7 7 7 7 4 4 3 1 2 2 3 3 4 5 6 7 7 8 9 8 8 7 8 8 8 7 7 7 7 6 5 5 6 5 4 5 8 9 9 10 10 11 13 16 17 17 18 18 16 15 14 13 13 13 13 12 12 12 12 11 11 12 12 12 12 12 12 12 12 12 11 10 9 9 9 9 9 8 8
8 8 8 7 7 6 7 6 6 7 6 5 4 2 3 3 3 3 4 6 7 7 7 9 9 8 7 6 8 9 9 9 8 7 6 6 5 5 5 5 4 5 6 8 9 10 10 10 11 14 17 17 17 17 18 16 15 15 13 13 12 11 12 13 13 12 12 13 13 13 13 13 13 13 13 12 12 11 11 10 10 10 10 10 9
9 8 8 9 8 6 6 6 5 6 5 4 5 3 2 3 3 3 5 6 6 7 7 9 8 7 7 7 8 9 9 9 9 8 6 5 6 5 5 5 5 5 6 7 8 8 9 9 10 11 15 17 17 17 17 16 16 17 15 14 13 12 12 12 12 13 13 13 14 15 15 14 14 14 14 14 14 13 12 11 11 11 11 11 10
10 8 8 10 8 6 6 7 6 6 5 4 5 4 2 3 3 3 4 5 6 7 7 8 8 7 7 7 8 8 9 9 9 8 6 5 5 5 6 6 7 5 5 7 7 8 10 10 10 11 13 14 16 17 17 16 17 17 15 14 13 13 14 14 13 14 14 14 15 15 16 16 16 15 15 15 15 15 14 13 13 12 12 11 11
12 10 10 9 8 7 7 8 7 5 5 5 6 6 5 4 4 4 4 5 6 7 7 8 8 7 7 7 7 7 8 8 8 7 6 5 4 5 5 5 6 6 6 7 7 9 10 9 9 10 11 12 13 15 16 16 17 16 15 14 15 16 17 16 15 15 14 15 15 15 16 17 17 17 17 17 17 16 15 15 14 14 13 12 12
12 11 11 10 9 8 7 7 6 4 5 6 5 6 5 4 5 5 4 6 6 6 7 7 7 7 6 6 6 7 7 7 7 7 6 5 4 4 5 5 5 5 6 6 6 9 10 9 9 9 10 11 12 13 15 16 15 15 14 14 15 16 17 16 16 16 16 16 16 16 17 17 18 18 19 19 19 19 18 17 16 15 15 14 13
12 11 10 10 9 9 8 7 6 5 6 6 6 6 4 3 5 5 5 6 6 6 6 6 7 7 5 5 5 5 6 5 6 6 5 5 4 4 4 5 6 4 5 5 6 7 8 8 9 9 9 10 10 12 13 14 13 12 12 13 14 15 15 15 15 16 17 18 18 18 18 18 19 19 19 20 20 21 21 20 19 18 17 16 15
12 11 9 9 9 9 8 6 5 6 7 7 7 6 3 3 4 5 5 6 6 6 7 6 6 6 5 4 4 4 5 5 5 5 5 5 4 4 5 4 5 6 4 4 6 7 5 5 7 8 9 8 9 10 11 12 11 11 11 12 13 14 14 13 14 15 16 18 20 21 21 20 20 20 19 19 20 21 22 22 22 21 20 19 18
12 11 11 10 9 10 9 7 6 8 8 7 8 5 3 4 3 4 5 5 6 6 6 7 6 6 5 4 3 4 4 5 5 5 4 4 4 4 6 6 5 6 4 2 3 5 4 4 5 7 8 8 8 9 10 10 10 11 11 11 11 13 13 13 14 15 16 18 20 22 24 23 22 21 20 20 20 20 21 22 23 23 22 22 21
13 12 12 11 10 11 9 7 6 7 8 7 6 4 5 5 4 4 4 5 7 7 7 7 6 6 5 4 2 2 4 4 4 4 4 4 5 5 5 6 6 7 6 5 3 1 2 2 4 6 7 7 7 8 9 10 10 10 10 10 11 13 14 14 14 15 16 18 21 23 24 25 24 24 23 22 22 21 21 21 22 23 23 23 22
13 12 13 11 10 10 9 8 5 5 7 6 4 4 5 5 4 5 5 6 7 7 7 6 6 5 5 5 2 1 2 3 3 3 3 3 4 5 5 6 5 7 7 7 5 3 3 2 1 3 5 6 7 7 7 7 8 8 9 10 12 14 15 15 15 15 16 19 21 22 23 24 24 24 24 24 24 24 24 23 23 23 23 23 23
13 11 11 11 10 10 9 9 7 6 6 4 4 6 4 4 5 5 6 6 5 5 5 5 5 5 5 5 3 2 1 1 2 1 2 2 4 5 5 6 6 6 7 7 6 6 6 7 5 3 2 4 5 7 7 7 8 8 9 11 12 14 15 15 15 16 17 19 20 21 22 23 23 23 23 23 24 25 26 26 26 25 24 24 24
12 12 12 12 12 11 9 7 7 7 4 2 3 4 4 4 5 5 5 4 4 4 3 3 5 4 4 5 4 4 3 2 1 1 1 2 4 5 6 7 7 6 6 6 6 6 6 7 8 7 4 2 0 3 4 4 6 6 7 10 11 12 14 15 16 17 18 18 19 20 21 22 22 22 23 24 25 24 25 27 28 28 27 27 26
12 12 13 13 12 12 10 7 7 6 3 1 2 2 4 6 5 5 4 3 4 4 2 3 4 2 3 5 4 4 4 2 2 1 2 3 4 5 7 8 9 8 6 6 6 6 7 6 7 7 6 3 3 2 1 2 0 3 5 6 7 8 9 12 14 16 17 17 18 19 20 21 21 21 21 22 23 23 24 25 27 27 27 28 28
11 12 12 11 9 10 9 6 6 4 2 1 2 2 4 4 4 4 4 4 5 3 1 3 4 3 2 3 4 3 3 2 1 2 3 3 5 5 5 6 8 9 7 6 6 6 6 6 6 6 6 4 3 2 2 3 2 2 4 5 6 6 6 7 9 11 13 14 16 18 18 20 21 21 21 19 19 20 21 23 24 25 26 27 27
10 11 11 8 6 6 4 4 4 3 1 1 2 3 3 4 4 3 3 5 4 2 2 2 3 4 2 2 3 3 1 2 2 2 2 2 6 6 3 4 8 8 7 7 6 5 5 6 6 6 5 4 4 3 2 3 2 2 3 5 6 7 7 7 7 6 6 7 10 13 14 15 18 19 19 18 19 19 19 20 22 23 25 26 26
10 10 9 6 5 5 5 4 2 1 1 2 2 2 3 3 3 2 3 5 6 2 0 1 1 2 3 3 2 2 1 1 1 1 0 2 6 5 3 4 6 5 4 5 5 4 4 4 4 4 4 4 3 3 3 3 2 1 2 4 5 6 7 8 8 7 6 6 7 8 9 10 12 14 15 16 18 19 19 20 21 22 23 24 25
10 9 7 6 6 6 5 2 0 0 1 2 2 2 2 2 2 2 3 3 4 5 3 1 1 0 2 1 0 1 1 2 2 1 1 1 3 4 4 5 4 4 4 3 3 3 4 3 2 2 2 2 2 2 2 3 3 2 0 2 2 3 5 6 8 9 9 9 9 9 9 9 10 11 12 14 15 17 17 19 20 21 22 23 23
8 7 6 6 6 6 4 1 0 1 1 1 1 1 1 2 2 2 2 2 2 4 5 2 2 1 2 0 1 1 2 1 2 1 1 1 1 1 4 6 3 2 1 2 1 2 3 4 4 2 1 1 1 1 1 2 2 1 0 1 1 1 1 2 4 6 8 9 10 11 12 12 12 12 13 13 14 15 16 17 19 20 21 22 23
6 6 6 6 5 5 3 1 1 2 1 1 2 1 1 1 1 1 1 2 2 3 4 4 2 1 1 1 1 1 0 1 2 2 2 1 1 2 1 2 2 1 2 5 3 1 1 2 4 5 3 2 2 3 3 3 3 2 2 2 1 1 1 1 2 3 4 6 7 9 10 11 12 14 14 15 16 17 17 17 18 19 20 21 22
5 6 6 5 5 4 3 0 2 2 2 2 2 1 2 1 1 1 1 1 1 3 3 4 5 1 3 1 1 1 1 1 1 1 2 2 2 1 2 3 2 1 2 5 4 3 4 3 3 6 5 4 4 4 4 4 4 4 5 5 4 4 3 3 3 3 4 5 5 6 7 8 9 11 12 14 16 18 19 19 20 20 20 20 21
6 6 6 5 5 3 3 2 2 2 2 3 2 1 1 2 2 1 1 2 1 3 3 3 4 2 1 1 1 1 1 1 1 1 1 1 3 3 5 5 3 2 3 5 4 5 6 4 5 7 5 4 6 5 5 6 5 5 6 7 7 6 5 5 5 5 5 5 6 6 7 7 8 9 10 12 14 16 18 19 21 22 22 23 23
5 6 6 5 5 3 3 3 2 2 2 3 3 3 3 3 2 2 2 2 2 2 3 3 2 2 2 2 2 3 1 1 3 3 2 3 3 4 6 6 6 5 6 5 5 6 6 6 8 8 6 5 7 6 6 7 7 9 8 7 7 7 7 6 6 6 6 6 6 6 6 7 7 8 10 11 13 15 16 17 19 20 22 23 24
5 6 6 7 6 4 3 3 3 3 4 4 4 3 3 2 2 2 3 3 3 2 2 3 3 3 4 3 3 4 1 1 3 3 2 3 4 4 6 6 5 6 8 8 6 6 7 8 8 8 7 6 6 7 8 8 10 13 11 8 8 8 9 9 9 8 7 7 7 6 6 6 6 7 8 9 11 13 15 16 17 19 20 22 23
6 6 6 8 7 4 4 4 4 5 5 5 4 3 3 2 2 3 3 3 3 3 3 3 3 3 4 4 4 5 3 2 4 4 3 2 3 5 6 7 6 7 9 8 7 8 9 9 8 7 6 7 7 8 9 10 12 13 12 10 10 11 12 12 11 10 10 10 9 9 9 8 8 8 8 8 9 11 13 15 16 17 19 20 22
7 6 6 6 6 5 6 6 6 6 6 5 4 5 4 3 3 4 4 4 4 4 4 4 4 3 4 5 5 6 5 5 5 5 5 5 6 6 6 6 7 9 9 7 7 8 9 8 7 8 9 9 8 9 10 11 12 12 12 12 13 14 14 13 13 13 13 13 12 12 11 11 10 10 10 10 10 10 11 12 14 16 17 19 20
6 6 5 6 6 6 6 7 7 7 6 7 6 6 6 5 5 5 5 5 5 6 6 6 5 5 5 6 6 6 7 7 6 7 7 7 7 6 6 5 5 7 8 8 8 9 10 9 8 9 10 10 10 10 11 12 12 13 14 15 15 15 15 15 15 16 16 15 15 14 14 13 12 12 12 12 12 11 11 11 12 14 15 17 19
5 6 6 6 6 7 7 8 8 8 8 8 8 8 7 7 7 6 7 7 7 7 8 8 8 8 8 8 8 8 9 8 8 8 7 7 7 6 6 6 5 5 5 7 7 8 10 11 11 8 7 9 10 10 11 13 13 14 16 17 15 15 15 16 17 19 19 17 16 16 16 15 15 14 14 14 14 13 13 13 13 13 14 16 17
5 6 6 6 7 7 8 8 9 9 9 9 9 9 8 9 9 9 8 8 8 8 9 9 9 9 9 9 9 9 9 9 9 9 8 7 7 7 7 7 7 5 4 5 6 8 11 11 11 8 4 8 9 9 10 13 14 14 15 16 17 16 16 17 19 20 20 19 19 18 18 18 17 16 15 15 16 16 16 16 16 16 16 16 17
7 6 6 6 6 7 8 9 9 10 10 10 10 10 10 10 11 10 10 9 9 9 9 9 10 10 10 9 9 9 9 9 9 9 8 7 8 8 8 8 8 7 7 6 6 8 11 11 13 10 4 6 9 10 11 12 14 14 15 16 17 17 17 18 20 21 21 22 20 18 18 18 19 18 17 17 18 18 19 20 19 19 19 18 18
9 8 7 7 8 9 9 10 10 11 11 11 11 12 12 12 12 11 11 11 11 11 10 10 10 11 11 10 10 10 10 10 10 9 9 8 9 9 8 9 9 9 9 8 6 7 10 12 14 14 11 11 12 12 12 12 13 14 15 16 17 18 18 19 21 22 23 22 20 18 17 17 18 19 19 19 20 21 22 23 23 22 21 20 19
12 12 11 11 13 13 13 13 13 13 14 14 14 13 14 14 13 12 12 12 11 11 11 11 11 11 11 11 11 11 11 11 11 9 9 9 10 10 9 9 10 9 9 9 7 8 11 12 13 14 14 14 14 13 13 13 13 14 15 17 17 17 18 18 19 21 23 22 21 21 21 19 19 20 21 22 23 23 23 22 23 24 23 22 22
15 16 17 19 21 19 18 17 17 17 17 17 16 14 14 14 14 13 12 12 11 11 11 11 12 12 11 12 12 13 12 12 11 10 10 11 11 11 10 10 11 10 9 9 9 10 12 12 12 13 13 14 15 14 14 14 14 14 15 16 17 17 18 18 19 20 22 23 23 23 22 21 21 22 23 24 24 24 23 24 25 25 25 25 25
21 23 25 26 26 24 23 22 21 19 18 18 16 14 14 14 14 14 13 13 12 12 12 12 13 13 12 13 14 13 12 12 11 11 11 12 12 10 9 9 11 10 9 10 11 12 12 12 12 13 13 14 15 15 14 15 16 16 16 17 17 17 18 19 20 20 20 21 20 20 21 22 23 25 26 26 25 25 26 27 28 28 27 27 27
28 31 30 29 28 26 26 26 24 20 18 18 17 15 14 15 15 14 14 13 13 13 13 13 13 13 14 15 14 13 12 11 12 12 13 13 11 10 10 11 12 12 11 11 12 13 14 14 14 14 13 14 15 15 15 16 17 17 18 19 18 17 17 18 20 20 20 20 19 20 23 25 27 28 28 28 27 27 28 29 29 29 29 29 29
36 36 33 31 30 29 29 28 25 22 20 18 16 16 16 17 17 16 15 14 14 14 14 14 14 14 14 15 14 13 12 12 13 13 13 12 11 10 12 13 12 11 11 11 13 15 16 17 17 14 14 16 17 16 16 17 17 18 20 20 18 17 18 19 19 20 21 22 23 24 26 27 28 29 29 30 29 29 30 30 29 29 30 31 32
40 39 35 33 32 31 31 29 27 26 23 20 17 16 17 18 17 16 15 15 15 15 14 15 15 14 14 14 14 13 12 13 14 14 13 13 11 11 12 12 10 11 13 14 15 17 18 20 18 16 17 18 18 17 17 17 18 19 19 20 20 19 19 19 19 20 20 21 23 24 25 27 28 29 30 30 31 31 32 31 31 31 32 33 34
42 39 35 35 34 33 33 31 29 27 23 19 18 17 17 18 17 15 15 15 16 15 15 15 15 15 14 15 15 14 12 13 14 15 15 14 12 11 12 11 11 12 14 15 15 16 18 18 17 18 20 19 17 16 16 16 18 19 20 20 20 19 19 18 18 18 19 20 21 22 23 25 26 27 29 30 31 32 33 33 33 33 34 36 37
43 39 36 36 36 35 34 32 31 29 25 20 19 18 18 19 18 16 15 16 16 16 15 15 14 15 15 16 16 15 13 14 15 16 16 15 13 13 14 14 14 14 13 12 14 15 16 16 16 18 19 17 16 16 17 16 18 19 20 20 19 19 19 18 18 18 20 21 22 23 24 25 27 28 29 30 31 32 32 33 34 35 36 37 37
44 41 39 40 38 36 34 32 31 29 26 22 19 18 19 20 19 17 16 17 17 16 16 15 15 15 16 16 16 15 13 13 14 14 15 14 13 15 16 16 17 16 15 16 16 16 15 16 17 18 18 17 16 16 16 16 17 18 19 19 19 20 20 19 19 20 22 22 22 23 24 25 26 27 27 28 29 29 30 32 34 35 37 36 35
46 43 42 41 39 36 33 29 27 25 22 20 19 19 20 20 20 18 18 18 17 16 17 16 16 16 17 16 14 14 14 15 16 16 15 13 13 13 15 17 19 18 18 19 18 17 16 16 17 18 18 17 17 15 15 15 17 18 20 20 20 20 20 20 20 20 21 22 23 23 23 23 25 26 26 27 27 28 29 31 32 32 33 32 31
47 44 42 39 34 33 31 26 24 22 20 19 19 20 21 21 20 18 18 19 18 18 17 17 17 17 17 16 14 13 15 17 18 19 18 17 17 16 16 18 21 21 20 20 18 17 17 17 17 18 17 18 18 17 16 17 19 21 21 21 20 20 19 20 19 19 19 20 21 22 22 23 25 27 28 27 27 28 29 29 28 29 29 29 30
46 42 40 36 28 24 25 23 22 21 20 19 20 21 23 24 22 19 18 19 19 19 18 17 17 17 16 14 12 13 16 18 17 17 18 18 17 17 17 19 21 22 22 22 20 19 18 18 19 19 18 19 20 19 18 19 20 20 20 19 19 19 18 17 16 17 17 17 20 23 24 24 25 27 29 28 28 28 28 28 28 30 33 35 34
41 37 36 36 28 20 19 19 20 20 19 20 22 23 24 26 26 22 19 18 18 19 19 18 17 17 16 15 12 12 15 17 16 15 16 16 16 17 17 18 20 22 23 23 23 21 21 20 20 21 22 21 21 20 18 18 18 19 19 18 18 18 18 17 17 18 18 18 21 24 26 26 26 28 29 30 29 29 29 30 30 32 35 35 34
27 26 28 29 23 18 16 17 18 19 19 21 24 25 25 26 26 24 21 18 18 19 19 18 18 18 17 16 15 13 13 13 13 12 12 13 15 16 16 16 18 21 24 26 26 26 25 23 22 23 23 20 20 19 18 18 18 18 19 19 18 18 19 19 20 22 22 21 23 25 26 26 26 27 28 29 30 31 31 30 32 34 35 35 34
15 15 17 17 16 16 16 15 17 17 18 20 24 25 24 24 24 26 24 20 19 18 16 16 19 18 17 16 14 14 12 12 12 10 10 11 13 14 14 16 18 20 23 27 29 27 27 27 26 24 21 17 17 18 17 16 17 18 19 19 19 19 21 22 23 26 25 23 23 24 24 24 25 27 28 29 30 32 32 32 34 35 35 36 37
12 12 13 13 13 14 14 14 15 16 17 20 22 22 22 22 24 26 24 19 19 19 18 19 19 16 14 13 11 10 10 10 11 11 11 12 13 13 14 17 19 20 22 25 26 24 23 24 25 23 20 17 16 16 16 17 18 18 18 19 20 22 23 23 24 25 24 22 22 22 22 24 26 28 30 31 32 32 32 33 35 36 35 36 38
13 12 12 12 13 13 14 15 16 16 17 20 21 22 21 21 23 25 22 19 18 17 17 17 16 13 13 13 12 13 14 14 15 15 13 13 13 12 14 17 19 21 22 22 22 21 21 21 21 21 21 20 19 20 21 21 20 19 17 18 20 21 21 22 22 23 23 22 23 24 25 26 27 28 30 32 32 33 34 35 34 33 34 35 38
14 12 12 13 13 14 15 17 18 18 18 21 22 22 21 21 23 24 22 18 16 15 13 13 15 16 17 16 14 14 15 16 18 18 14 13 13 14 16 18 18 19 20 19 20 21 20 20 20 21 20 20 20 21 22 20 19 19 18 17 18 19 21 19 18 21 23 23 24 26 26 26 25 26 29 31 31 33 34 33 31 31 33 37 40
14 12 12 12 12 13 15 16 18 18 18 19 21 20 20 21 22 23 20 16 16 16 13 14 17 19 16 14 12 13 14 16 18 16 13 13 14 15 15 16 17 19 19 18 17 16 15 14 15 15 16 18 20 20 20 19 19 18 19 21 21 20 19 18 18 21 23 24 25 24 23 24 24 24 28 30 29 30 30 30 31 34 36 38 40
14 13 13 12 12 13 14 14 16 17 17 17 18 19 20 22 23 21 18 15 14 14 13 14 17 16 13 11 12 14 15 16 16 14 13 13 14 14 14 16 18 17 15 13 12 12 12 13 13 14 15 16 18 19 19 20 20 20 23 26 26 22 20 20 22 21 17 19 22 20 20 24 25 25 26 23 19 21 27 30 32 34 36 39 41
Wind_Direction
253 251 251 258 273 286 284 283 294 296 290 291 275 245 278 278 285 294 305 306 310 314 310 314 321 323 327 332 326 325 331 330 329 323 314 311 298 298 305 297 273 241 238 239 232 223 221 225 222 219 217 211 208 206 206 209 211 215 216 215 216 218 219 223 227 231 231 230 230 231 233 231 231 232 231 230 233 241 245 249 252 253 253 253 257
265 263 250 259 273 276 282 286 292 290 284 295 295 274 273 273 277 292 305 303 311 313 312 321 324 328 331 334 337 340 341 337 332 324 315 312 300 292 305 306 282 247 234 240 238 234 230 229 227 222 222 219 216 211 208 207 210 216 220 220 224 226 223 222 226 233 237 238 236 234 236 236 235 234 235 234 236 240 243 248 251 254 258 259 260
254 263 250 258 267 266 276 285 295 294 292 302 298 287 283 281 269 287 305 306 314 316 318 324 325 334 340 343 351 348 341 339 334 328 324 315 304 295 294 298 288 260 242 243 239 240 240 234 227 222 225 225 223 220 215 210 211 217 220 222 228 231 230 229 228 232 236 242 242 240 240 240 241 240 239 237 239 242 242 244 247 250 254 257 259
243 251 248 260 267 263 272 278 284 291 293 302 297 289 276 281 275 280 300 311 315 316 320 321 325 338 344 351 355 349 345 344 339 336 335 321 310 304 289 287 290 278 259 254 242 237 239 238 231 223 226 226 224 225 222 218 218 222 222 219 222 226 230 233 235 235 234 239 244 246 245 244 245 246 245 244 243 245 245 245 246 249 250 253 256
244 247 246 258 261 260 270 273 279 285 282 287 287 268 246 263 277 274 295 310 312 321 324 322 332 342 345 352 355 352 350 345 342 340 343 337 324 314 298 285 280 274 276 270 246 239 242 244 242 232 228 226 226 229 230 228 226 228 230 226 225 226 227 228 233 238 236 237 241 245 248 248 249 249 250 251 251 250 249 249 249 250 252 252 254
244 246 247 252 256 260 264 271 277 265 265 273 270 263 256 268 280 286 306 308 314 330 328 327 335 339 343 347 356 358 348 348 350 345 352 357 345 334 320 309 290 264 270 272 244 241 246 245 241 236 234 230 224 225 228 232 231 229 232 234 232 231 231 229 230 236 239 241 242 243 246 248 249 251 252 253 254 256 255 255 254 253 255 255 255
237 245 250 252 257 262 262 271 274 261 268 268 256 260 270 285 285 300 319 317 328 332 324 330 331 331 339 340 356 358 342 354 358 346 2 13 4 9 357 334 328 306 272 258 247 243 244 244 239 232 233 231 221 218 221 225 225 223 224 229 233 235 238 239 237 235 236 242 245 246 246 246 247 249 251 254 255 257 258 259 259 259 259 259 259
236 243 247 254 259 263 266 265 257 258 262 254 257 264 270 290 298 314 329 330 329 325 321 326 324 324 328 331 354 351 340 358 0 357 11 17 16 32 37 18 355 346 322 254 245 238 226 235 241 236 233 229 222 221 220 219 215 213 218 225 236 243 244 244 244 242 241 243 246 247 247 247 247 247 248 251 255 258 260 260 261 262 263 263 264
237 240 247 257 257 258 261 257 258 264 258 245 256 273 288 296 306 321 333 327 313 312 314 313 310 315 316 324 346 335 339 358 357 6 11 11 18 33 48 46 32 18 8 309 241 230 231 243 243 240 238 234 223 219 216 212 211 212 219 227 240 252 253 249 245 245 245 245 247 246 246 247 248 249 248 250 253 256 259 262 262 263 264 265 265
234 239 247 251 254 257 257 257 260 261 256 250 257 284 304 303 315 325 328 315 303 305 304 304 305 303 302 310 339 330 338 356 357 8 9 14 23 27 47 51 43 41 40 42 58 192 239 273 252 236 236 237 227 219 212 205 208 215 222 228 238 247 253 254 251 248 245 244 246 246 245 245 246 248 251 253 255 256 257 259 262 264 265 266 267
230 236 244 248 254 258 256 250 231 228 246 246 261 294 305 312 321 321 320 308 301 300 293 291 293 293 295 302 314 301 319 348 351 6 10 18 32 30 43 52 44 43 46 47 48 50 62 56 262 230 229 233 225 226 223 215 220 227 233 237 243 248 251 253 254 255 251 246 247 248 246 245 245 247 250 254 256 257 257 257 258 261 263 266 267
230 233 241 248 253 255 258 251 227 226 237 228 280 305 321 336 323 320 321 311 303 290 282 284 290 295 296 288 259 222 227 341 339 8 34 36 48 44 44 47 46 46 44 44 40 33 48 62 59 81 184 224 232 237 234 229 233 237 245 248 249 253 254 251 250 251 250 247 248 250 251 251 249 249 249 251 255 256 257 257 257 259 261 264 265
233 235 239 247 256 258 256 248 231 229 220 207 306 320 342 337 321 320 311 305 308 287 270 282 284 291 294 282 245 204 180 173 202 69 60 78 77 63 53 43 36 41 46 49 46 34 42 59 56 63 93 122 318 261 241 234 245 247 252 254 253 255 256 253 251 251 250 249 251 252 255 256 253 253 251 250 252 254 255 256 257 258 260 262 263
236 242 246 251 258 254 242 233 226 218 191 184 296 320 331 322 316 311 295 289 299 293 294 267 268 292 315 308 281 201 177 214 221 122 68 77 85 69 59 49 32 27 32 43 52 46 42 57 60 60 73 80 66 57 101 107 144 260 254 258 261 260 260 260 257 256 255 252 251 252 254 255 254 254 256 254 253 254 254 255 257 257 259 260 261
230 239 247 248 249 247 238 229 218 202 178 231 279 305 312 304 292 296 296 286 268 259 278 267 284 329 325 301 289 216 167 209 239 88 58 67 83 68 53 51 38 24 22 32 46 55 50 54 62 62 66 70 71 64 80 113 149 257 260 261 269 266 262 264 263 262 261 257 255 254 254 256 255 253 255 256 257 257 258 258 258 259 259 259 260
224 236 243 238 235 236 218 197 202 208 232 256 288 299 285 265 271 285 287 289 278 212 160 237 290 332 311 278 293 292 160 157 144 87 52 101 110 90 70 73 53 26 15 25 31 51 61 55 53 58 65 68 81 90 93 125 182 281 293 269 261 259 258 260 262 260 260 259 259 259 259 261 261 256 254 257 257 256 259 261 262 262 260 259 260
226 234 233 214 199 195 180 176 202 236 255 266 280 280 271 259 272 275 256 283 306 320 150 208 275 326 312 307 309 319 355 1 49 111 82 160 140 111 75 84 80 57 30 28 24 34 51 56 54 52 55 59 73 88 97 122 147 123 311 283 260 253 257 259 261 259 257 257 257 259 260 261 261 259 258 260 260 257 259 262 263 264 263 260 260
218 217 205 186 176 172 169 165 132 213 231 264 270 266 285 283 278 278 256 271 302 304 291 245 141 255 295 296 263 333 14 330 331 113 302 337 125 118 91 75 88 126 109 53 39 31 16 22 38 38 42 43 53 80 102 115 130 139 169 309 293 267 263 262 261 261 260 261 261 261 262 260 258 257 257 259 260 259 261 262 262 264 265 264 262
206 196 180 171 166 164 168 159 125 249 222 251 293 311 332 327 301 295 291 283 282 285 286 272 156 185 272 225 119 30 30 351 356 47 300 12 47 176 128 92 62 147 112 0 49 69 7 341 331 317 305 337 327 242 185 150 155 176 133 21 4 326 299 273 268 268 265 263 263 264 265 265 264 262 260 259 259 259 259 260 261 263 265 266 265
197 183 166 160 162 166 166 153 293 277 247 260 275 316 11 355 317 319 300 286 281 279 295 310 305 149 167 238 98 89 166 86 36 352 302 277 235 240 176 62 353 321 315 310 316 41 318 282 310 306 280 269 274 266 252 205 195 218 232 256 259 248 275 287 288 286 280 277 272 270 269 269 268 267 265 261 260 260 259 259 259 260 263 264 266
177 166 158 164 170 167 161 151 308 278 257 269 264 29 19 338 256 214 210 253 291 286 291 308 312 31 107 179 166 203 243 126 105 281 314 313 264 251 286 281 280 245 263 286 302 317 289 261 297 294 276 275 270 261 260 242 220 218 237 261 260 244 246 253 267 275 280 286 285 283 281 278 275 271 270 267 265 264 262 261 261 260 262 263 265
165 158 157 167 166 170 198 246 297 273 266 289 298 338 318 254 238 232 229 248 268 274 280 294 309 352 85 187 222 251 281 284 245 231 137 229 257 284 289 286 298 292 279 282 281 292 295 285 284 276 264 280 278 265 262 256 235 221 242 264 259 253 255 251 259 269 273 277 279 282 282 282 281 277 275 275 272 270 268 266 265 264 264 264 264
173 164 163 170 166 184 234 253 264 243 239 268 267 266 247 218 210 214 212 227 236 250 272 281 291 295 247 215 247 265 281 314 313 336 325 267 278 295 299 311 318 307 303 285 242 247 259 243 249 256 250 267 275 270 267 264 252 246 254 268 260 254 258 257 262 268 271 273 273 277 282 285 287 284 280 278 276 275 274 272 269 268 266 265 265
179 169 173 178 173 188 234 239 228 221 221 231 235 249 261 221 185 202 202 204 227 234 249 261 260 269 264 240 254 277 287 281 289 294 294 315 330 309 297 307 307 298 303 295 266 265 270 255 253 257 249 255 267 266 266 271 265 254 254 274 279 267 261 261 265 268 269 270 270 275 285 295 300 300 294 286 281 278 277 277 275 273 271 268 267
179 179 185 185 179 188 211 217 222 224 228 230 218 215 235 226 190 208 213 199 218 228 238 259 255 262 278 273 267 278 276 255 264 273 278 281 267 269 289 304 304 296 294 294 293 289 281 274 278 278 259 251 258 255 254 265 268 257 252 266 279 278 270 262 262 268 271 272 275 277 281 291 303 312 314 306 295 287 282 281 280 278 277 275 273
182 183 189 193 198 205 208 216 224 221 221 220 211 203 210 218 211 218 226 221 224 231 238 254 260 261 275 283 282 282 285 277 262 263 268 264 260 272 296 300 294 293 292 290 282 275 272 264 261 258 244 242 255 258 255 260 266 267 264 265 273 278 275 265 264 271 272 271 274 277 279 284 293 305 314 317 312 303 294 289 286 284 282 281 279
180 178 183 194 205 212 215 219 217 213 210 209 208 204 206 215 222 227 232 233 232 237 244 248 254 260 263 274 281 278 282 281 271 267 267 272 280 288 291 289 289 295 300 298 286 281 286 280 267 252 233 229 242 257 263 259 258 267 271 270 271 273 273 268 270 275 275 272 272 272 273 276 282 293 304 311 313 312 307 302 297 293 290 287 285
169 171 180 191 200 209 214 214 209 207 207 207 211 213 210 211 217 225 232 237 237 239 246 249 251 256 257 259 262 266 274 277 276 276 271 271 276 276 275 276 286 294 296 296 293 293 296 292 288 281 242 226 233 248 262 259 256 262 266 268 266 265 268 268 270 274 276 277 277 274 270 269 273 281 291 301 306 308 309 308 307 305 301 297 292
163 167 178 188 199 207 211 209 206 209 211 210 214 218 217 215 216 223 229 237 243 241 244 251 254 257 259 257 253 255 262 264 265 267 266 269 270 271 275 274 277 285 290 296 297 299 303 299 298 297 244 220 235 252 260 257 258 257 255 261 264 264 267 267 268 271 273 277 280 275 270 268 270 275 283 293 298 302 305 306 306 307 306 302 298
159 163 172 180 192 203 209 212 210 213 217 215 215 218 221 222 223 226 228 233 243 245 244 250 254 257 260 261 259 256 253 252 256 261 261 263 263 265 272 273 275 280 286 294 291 292 301 301 299 299 265 236 254 266 266 263 268 263 253 257 263 263 264 266 267 268 269 274 277 273 269 268 268 270 277 286 293 297 299 301 301 302 304 302 298
160 157 162 178 194 202 207 214 218 218 219 216 217 219 221 225 227 229 228 229 237 243 246 248 250 251 251 253 257 258 258 256 256 261 263 264 265 265 266 266 269 270 276 284 286 290 299 302 302 301 291 281 277 275 273 272 274 266 256 259 263 263 265 267 267 267 269 274 274 270 269 271 270 270 274 282 289 293 295 296 297 296 297 299 298
164 163 170 185 194 199 203 209 216 218 215 212 214 217 221 227 230 231 231 231 234 238 242 246 251 255 253 252 253 254 256 257 257 261 265 265 265 265 264 268 273 274 275 278 280 288 294 296 299 298 293 291 287 279 272 269 269 264 261 263 263 263 266 267 267 267 269 273 272 269 268 269 270 272 276 281 287 291 292 293 294 293 292 292 294
176 184 190 193 194 195 199 204 210 214 212 209 210 213 219 227 232 235 237 239 242 241 240 241 247 254 252 248 249 251 253 259 261 261 262 262 260 257 257 266 274 277 278 277 279 284 289 290 290 290 290 290 288 282 273 270 270 267 263 264 265 267 269 269 270 270 268 269 271 269 268 266 267 272 277 282 286 289 290 292 294 292 288 287 288
193 201 202 198 195 195 199 201 205 209 209 208 209 211 216 224 229 233 237 239 240 240 240 239 239 243 247 246 248 249 250 256 259 259 258 257 259 262 265 268 273 277 278 276 277 279 284 288 287 286 287 285 283 282 282 282 281 278 272 270 271 272 271 271 272 273 273 273 272 271 271 269 268 270 275 280 283 285 287 290 291 289 286 285 285
206 209 207 202 196 197 201 201 201 204 207 208 209 210 214 222 226 228 232 235 235 235 235 237 236 236 240 243 246 246 248 250 250 249 248 250 259 271 274 273 277 283 285 280 278 279 284 287 284 283 286 287 285 284 286 287 287 286 284 280 276 272 272 273 272 273 277 278 277 275 274 273 271 272 274 277 278 280 284 286 286 285 283 283 283
213 211 208 205 200 199 202 200 196 198 202 206 209 211 216 222 224 226 229 231 234 235 234 236 237 236 237 243 246 246 246 249 250 246 241 244 254 260 265 270 273 279 287 293 294 290 286 283 280 280 284 286 286 286 288 289 290 291 289 287 282 275 275 276 275 275 275 274 274 273 272 270 271 272 274 275 275 277 281 282 281 281 280 280 281
214 210 206 206 203 201 202 200 196 197 200 202 205 213 222 224 222 224 229 232 233 235 236 238 239 239 240 245 250 249 248 251 255 255 252 254 258 260 267 270 263 265 275 284 290 286 277 277 281 285 285 283 283 285 287 289 290 292 292 291 289 285 281 280 278 278 278 276 275 275 272 269 268 270 273 275 275 276 278 278 279 280 280 280 281
212 209 209 209 206 204 204 203 202 200 198 197 201 212 226 228 223 222 228 234 236 234 235 238 240 242 244 249 254 254 252 256 261 265 266 267 269 273 280 282 278 281 281 277 278 276 271 275 281 280 277 277 281 285 287 289 290 290 292 292 292 290 287 282 278 278 280 279 276 275 272 270 269 271 274 276 276 276 275 276 277 279 280 281 282
211 210 212 213 210 209 208 208 207 203 200 198 199 208 224 230 226 221 226 233 238 237 235 237 239 242 246 249 253 253 254 260 266 271 275 276 277 278 280 281 283 285 282 276 274 274 276 281 282 277 274 278 285 288 291 294 292 287 288 290 293 293 291 286 283 283 282 280 277 273 271 271 274 275 275 276 277 276 275 276 277 278 279 280 280
212 213 216 217 215 213 211 209 208 206 202 198 197 204 218 227 226 222 222 227 233 237 237 239 240 244 248 251 254 258 259 262 267 273 277 274 272 274 273 274 280 283 282 282 280 280 284 288 285 281 282 285 285 286 291 292 287 284 288 292 294 295 293 291 290 288 285 281 277 276 275 276 279 279 278 279 280 278 279 280 280 280 279 277 276
213 215 218 218 216 213 209 206 204 202 198 195 196 203 214 223 225 223 220 221 227 232 237 242 243 246 252 254 257 260 261 263 267 272 276 273 271 274 274 276 280 279 278 279 279 282 287 287 285 284 285 285 283 284 288 287 284 286 291 294 294 293 294 294 291 287 283 281 279 277 278 279 281 281 279 279 278 278 280 282 282 280 279 277 276
212 213 212 212 213 209 204 200 196 196 196 195 197 203 212 221 224 223 221 222 224 228 233 239 244 249 252 253 258 263 266 270 273 274 276 277 275 274 273 276 277 275 275 274 272 277 284 283 281 282 282 282 283 285 287 287 287 289 292 295 295 296 297 295 292 288 284 283 282 281 281 282 282 281 280 279 279 279 279 279 280 279 280 279 278
210 209 207 206 205 199 196 194 190 191 195 195 198 204 211 219 222 222 223 225 226 228 230 235 244 250 252 255 264 268 268 272 274 272 272 272 272 271 271 272 272 271 273 271 268 272 278 278 278 279 278 279 283 285 285 285 288 291 295 297 296 296 297 294 293 293 290 288 289 288 287 286 283 281 281 281 280 279 278 279 280 279 279 275 271
210 209 207 209 207 195 189 192 192 194 197 197 200 204 212 220 224 226 228 230 229 229 228 230 239 246 249 253 258 259 265 272 270 264 263 261 261 267 270 269 268 266 265 263 263 268 273 276 279 279 276 277 282 285 286 288 292 295 296 295 293 294 294 292 291 290 290 294 295 292 290 289 286 283 282 282 281 279 278 280 281 282 282 277 272
208 207 207 210 207 193 187 192 196 200 202 200 201 205 213 223 228 228 229 232 233 232 230 232 237 243 247 249 250 250 256 264 261 255 253 254 260 267 268 267 269 268 264 261 260 263 268 271 273 273 273 278 285 288 291 296 300 301 299 297 296 296 293 291 290 290 292 295 294 291 289 288 288 285 283 283 283 281 281 284 286 286 284 282 281
201 197 196 196 190 184 187 193 198 205 209 207 205 209 216 224 228 229 228 232 237 236 234 233 235 240 244 246 250 251 245 242 248 253 249 249 260 268 270 273 274 273 271 267 264 265 269 268 265 267 272 279 285 287 292 299 304 302 299 297 296 295 291 289 289 289 290 289 287 287 285 286 287 285 284 285 284 284 287 290 290 287 284 282 284
204 193 188 184 182 185 190 195 202 210 216 214 210 211 218 224 227 227 226 229 236 238 239 240 238 239 244 245 250 260 258 246 251 261 258 251 258 271 282 284 279 275 273 269 266 267 268 263 260 263 270 276 281 286 293 299 299 296 293 291 290 289 287 286 286 286 286 286 286 283 282 285 288 287 286 287 288 289 291 290 288 287 285 284 284
203 193 189 190 192 193 193 197 203 210 218 219 215 213 218 222 223 224 224 223 227 234 239 241 237 229 229 238 252 270 273 262 261 269 267 257 258 271 279 276 270 268 267 267 268 270 269 265 263 266 273 279 284 290 294 296 293 290 291 291 288 285 282 283 285 286 288 290 289 285 283 288 291 289 288 289 291 291 290 288 287 287 286 286 286
202 196 195 198 198 196 196 200 205 212 222 223 218 215 219 222 221 220 219 218 224 228 225 225 230 231 236 247 258 264 260 257 263 270 268 263 266 270 270 267 264 264 267 270 275 275 271 269 270 274 280 286 291 293 294 294 290 287 283 280 279 281 283 284 286 288 290 292 291 289 288 290 294 293 291 291 291 289 288 287 287 288 290 290 291
209 208 204 204 202 200 206 214 216 218 222 221 215 214 219 223 221 217 216 220 227 228 221 223 233 237 239 245 244 240 245 255 262 262 259 262 266 264 260 260 262 266 272 279 283 281 277 277 278 281 288 294 297 296 293 291 289 284 272 264 268 278 284 284 287 291 291 290 291 292 292 293 296 297 296 296 292 287 286 288 290 290 292 293 294
216 217 214 212 210 208 217 227 225 221 222 220 215 217 223 224 221 216 215 220 222 221 221 227 232 229 225 231 238 241 248 252 251 249 252 257 257 255 256 261 267 273 280 286 292 293 292 289 287 288 293 295 294 292 290 287 286 282 271 262 261 267 275 280 286 291 290 288 292 297 298 297 298 298 297 296 294 291 290 290 291 292 293 295 296
Height
842 843 843 843 843 843 843 844 843 843 843 844 844 845 845 846 846 846 846 847 846 847 846 846 847 846 846 846 845 844 844 844 843 843 843 843 843 842 843 843 843 844 845 845 846 846 847 846 846 847 848 849 850 850 851 852 854 855 856 857 857 858 859 859 860 861 862 864 865 866 866 867 867 868 868 868 868 869 869 870 870 871 871 871 871
842 843 843 843 843 843 843 844 844 843 844 844 844 845 845 845 846 846 846 846 846 846 846 846 846 846 845 845 845 844 844 844 843 843 843 843 843 842 843 843 843 844 844 845 845 846 847 847 847 848 848 848 849 850 851 852 853 854 854 855 856 857 858 859 859 860 862 863 864 865 865 866 867 867 867 867 867 868 868 869 869 870 870 870 871
842 843 843 844 843 843 844 844 844 844 844 845 845 845 845 846 846 846 846 846 846 845 846 846 845 845 845 844 844 844 844 844 843 843 843 843 843 843 842 842 843 843 844 844 845 845 846 847 847 847 848 848 849 849 850 851 852 852 853 854 855 856 857 857 858 859 860 862 863 864 865 865 866 866 867 867 867 867 867 868 868 869 869 869 870
842 843 843 843 843 843 844 844 844 845 845 845 845 845 845 845 845 845 845 845 846 845 846 845 845 844 844 844 844 844 844 844 844 843 843 843 843 843 842 842 842 843 843 844 845 845 845 845 846 847 847 848 848 849 850 851 851 852 852 853 853 853 854 854 855 856 858 860 862 863 864 865 865 866 866 866 866 866 866 866 867 867 868 868 869
842 842 842 843 843 843 843 844 844 845 845 845 845 845 844 844 845 845 845 845 845 845 846 845 844 844 844 844 844 844 844 844 844 843 843 843 842 843 842 842 841 842 843 843 844 845 844 845 845 845 846 847 847 848 849 850 851 851 852 852 852 851 851 852 854 855 856 858 860 862 863 864 864 865 865 865 865 866 865 865 866 866 866 867 867
841 842 842 842 842 842 843 843 844 844 844 844 844 844 844 843 844 845 845 845 845 845 845 845 845 845 845 845 844 844 844 843 843 843 843 842 842 842 842 841 841 841 841 842 843 844 844 844 844 844 844 845 846 847 848 849 850 851 851 851 850 850 850 852 853 854 855 856 858 860 861 862 863 863 863 864 864 865 865 865 865 865 865 865 866
841 841 841 842 842 842 842 843 843 844 844 844 844 844 844 843 844 845 845 845 845 845 845 845 845 845 845 845 844 844 843 842 842 842 841 841 842 842 841 841 841 841 840 841 841 842 843 842 843 843 843 844 844 845 846 847 848 849 849 849 849 850 851 852 852 852 853 855 857 858 859 860 861 861 862 862 863 863 864 864 864 864 864 864 864
840 840 841 841 841 841 841 842 842 843 843 843 844 844 844 844 844 844 845 845 845 845 844 844 845 845 844 844 844 844 843 842 841 841 841 841 841 841 841 840 840 840 840 840 840 840 841 841 841 842 842 842 843 843 844 845 846 847 848 848 848 849 849 850 851 851 852 853 855 856 858 858 859 859 859 860 861 861 862 863 863 863 863 863 863
839 839 839 840 841 841 841 841 842 841 842 843 843 844 843 843 844 844 844 845 844 844 843 843 844 843 843 843 843 843 842 842 842 841 841 841 840 840 840 840 840 839 839 839 839 839 840 840 840 841 841 841 842 842 843 844 845 845 846 846 846 847 848 849 849 850 852 853 854 855 856 856 857 857 857 858 858 859 860 861 861 862 862 862 862
837 837 838 839 840 840 840 841 841 840 841 842 843 843 843 843 843 843 843 844 843 843 843 843 842 842 842 842 842 843 842 842 842 842 841 840 840 840 840 840 840 839 839 839 840 840 839 839 840 840 841 841 841 842 843 843 844 845 845 845 845 846 846 847 849 850 851 852 852 853 854 854 855 855 856 856 856 857 857 858 859 860 860 860 860
836 836 837 838 839 839 840 840 840 840 840 842 842 842 842 843 843 843 842 842 842 842 842 842 841 841 841 841 841 842 842 842 842 842 841 841 840 840 839 840 840 840 840 840 840 840 839 839 840 840 841 841 842 842 843 843 844 845 845 845 846 846 846 847 849 850 850 849 850 851 852 852 852 853 853 853 854 854 855 856 856 857 858 858 859
835 836 836 837 838 839 839 839 839 839 840 841 841 842 842 842 842 842 842 841 841 841 841 841 841 840 840 840 840 841 841 841 841 841 841 841 840 840 840 840 840 840 840 840 840 840 839 840 840 840 840 841 841 842 843 843 843 844 845 845 845 846 846 847 847 848 848 847 848 849 849 850 850 850 851 851 851 852 853 854 854 855 855 856 856
834 834 835 836 836 837 838 838 837 838 839 840 841 842 842 843 842 842 842 841 841 840 840 841 840 840 840 839 838 839 840 841 841 841 840 840 840 841 841 841 841 841 841 841 840 840 840 840 840 840 841 841 842 842 842 843 843 843 844 844 844 845 845 845 845 846 846 846 846 847 847 847 848 848 849 849 849 849 850 851 852 852 853 853 854
832 833 834 834 834 835 836 836 836 837 838 839 841 841 842 842 842 842 841 841 840 840 840 840 839 838 838 838 837 837 839 839 839 840 840 840 840 840 841 842 843 842 842 841 841 841 841 841 841 841 841 842 842 842 842 842 843 843 843 843 843 844 844 844 844 844 844 845 845 845 845 845 846 846 846 847 847 847 848 849 849 850 850 851 851
831 832 832 833 833 834 834 835 836 837 838 839 840 840 841 842 842 842 841 840 840 839 840 839 838 837 838 840 838 836 839 840 839 840 840 840 841 841 842 842 844 844 843 842 842 842 841 841 841 841 841 842 841 841 842 842 843 842 842 842 842 842 843 843 843 843 843 844 844 843 843 844 844 844 844 845 845 846 846 846 847 847 848 848 848
829 830 831 832 832 833 834 835 837 838 838 839 839 839 840 841 841 841 841 840 838 838 839 839 838 838 838 839 837 836 841 841 839 840 841 841 841 842 842 843 844 845 845 844 843 843 842 842 841 841 841 842 842 842 842 842 842 842 841 841 841 841 842 842 842 842 842 842 842 841 841 841 841 842 842 843 843 843 844 844 844 845 845 845 846
828 829 830 831 831 832 834 835 836 838 838 838 839 839 840 840 840 841 841 841 839 838 839 839 839 839 838 838 839 841 843 841 839 841 841 840 841 842 842 842 844 846 846 845 845 844 843 843 842 842 842 842 842 842 842 842 842 842 841 840 840 840 840 840 840 840 840 840 840 840 839 839 839 840 840 841 841 841 842 842 842 842 842 842 843
827 828 829 830 831 832 834 835 836 837 838 839 839 839 840 840 840 841 841 841 840 839 838 838 839 840 839 839 841 842 841 839 840 842 841 839 839 841 842 842 843 844 845 845 845 845 844 844 843 843 842 842 842 842 842 842 842 841 841 840 839 839 839 839 839 839 839 838 839 838 838 838 838 838 838 839 839 839 839 839 840 840 840 840 840
826 828 828 829 831 832 834 835 836 837 838 839 839 839 839 840 840 841 841 841 841 840 838 838 838 839 839 839 840 840 840 839 839 841 842 840 839 840 840 841 843 843 844 844 844 845 845 845 844 843 843 843 842 842 842 841 841 840 840 839 839 839 839 838 838 838 837 837 837 837 837 837 837 837 837 837 837 837 837 837 837 837 837 837 837
826 827 827 829 830 832 833 834 835 836 837 838 838 838 839 840 840 841 841 841 841 841 840 838 838 838 840 840 840 840 840 839 839 840 841 841 839 838 838 840 841 842 843 843 843 844 844 845 845 844 843 843 843 842 842 841 841 840 839 839 839 839 838 838 838 837 837 837 836 836 836 836 836 836 836 836 835 835 835 835 835 835 834 834 834
825 826 827 829 830 831 832 834 835 836 837 837 837 838 838 839 840 840 840 841 841 841 841 840 839 838 840 840 840 840 839 839 840 840 839 841 840 837 837 838 839 841 843 843 843 844 844 844 844 844 843 843 843 842 842 841 841 840 839 838 839 838 838 838 837 837 837 836 836 835 835 835 834 834 834 834 834 833 833 833 833 832 832 832 832
824 825 827 828 830 831 832 833 834 835 836 836 836 837 838 839 839 839 839 840 841 841 841 841 840 840 840 841 840 839 839 839 839 839 839 840 840 837 836 836 837 839 840 841 842 843 843 843 843 843 842 843 842 842 842 841 841 840 839 838 838 838 838 837 837 837 836 836 835 835 834 834 833 833 832 832 831 831 831 830 830 830 829 829 829
823 824 826 827 829 830 831 832 833 834 835 836 836 836 837 838 838 839 839 839 840 840 840 840 840 840 840 840 840 838 838 839 838 839 839 839 839 837 836 835 837 838 838 839 840 841 842 842 842 841 841 842 842 841 841 841 841 840 839 838 838 837 837 837 836 836 835 835 834 834 833 832 832 831 831 830 829 829 828 828 828 827 827 826 826
822 823 825 827 828 830 831 832 833 834 834 834 835 835 836 837 838 839 839 839 840 840 840 840 840 840 839 839 839 838 838 839 839 839 839 839 840 839 837 836 837 837 838 838 838 839 840 840 840 840 840 840 840 841 841 840 840 839 838 838 837 837 836 836 835 835 834 834 833 833 832 831 830 830 829 828 828 827 826 825 825 824 824 823 823
822 823 824 826 828 830 831 832 833 833 833 834 834 835 836 836 837 838 839 839 840 839 840 840 839 839 839 838 838 838 838 838 839 839 839 840 840 840 838 837 837 837 837 837 837 838 838 838 838 838 838 838 839 840 840 840 839 837 837 837 836 836 835 835 834 834 833 833 832 832 831 830 829 828 827 826 826 825 824 823 822 822 821 820 820
821 823 824 826 827 829 830 831 832 833 833 834 834 835 836 836 837 837 838 838 838 839 839 838 838 838 838 838 838 838 837 837 838 839 838 838 838 838 838 838 838 836 835 835 836 836 835 836 836 836 836 837 837 838 838 838 838 836 836 836 836 835 834 833 833 832 832 831 831 830 829 829 828 827 826 825 824 823 822 821 820 819 818 818 817
822 823 825 826 827 829 830 831 832 832 833 833 834 834 835 835 836 836 836 837 837 837 838 837 838 837 837 838 838 838 837 837 837 837 838 838 837 838 838 839 839 837 835 834 834 834 833 833 833 833 834 834 836 837 836 837 837 836 835 835 834 833 832 832 831 830 830 829 829 828 827 827 826 825 824 823 822 821 820 819 818 817 816 816 815
821 823 824 826 827 828 829 830 831 831 832 832 833 833 833 834 834 835 835 835 835 836 836 837 837 836 836 837 837 837 837 836 837 837 837 837 837 838 838 838 839 839 836 834 832 832 832 831 831 831 832 832 833 834 835 835 835 835 834 833 832 831 830 829 829 828 827 827 826 826 825 825 824 823 822 821 820 819 818 817 816 816 815 813 813
821 822 824 825 826 827 828 829 829 830 831 831 832 832 832 832 832 833 833 833 834 834 835 836 836 835 835 835 835 836 836 835 836 836 836 836 836 836 837 837 838 838 837 836 834 831 831 830 830 829 830 831 831 832 832 832 832 832 831 831 830 829 828 827 826 825 825 824 824 823 822 822 821 821 820 819 818 817 816 815 814 814 813 812 811
819 821 822 824 825 826 827 828 828 829 829 830 831 831 831 831 831 831 831 831 832 832 833 835 835 835 835 834 834 834 834 834 834 834 834 834 834 835 836 836 836 836 836 836 834 831 830 830 829 829 828 829 829 829 829 830 829 829 828 828 827 826 826 824 823 823 822 821 821 820 819 819 819 818 817 817 816 815 814 813 812 811 810 809 808
817 819 820 821 823 823 824 825 826 826 827 827 828 829 830 830 830 830 830 830 830 831 832 832 833 834 834 834 834 833 833 833 832 833 832 833 833 833 834 833 833 833 832 833 832 830 830 829 828 828 828 827 827 827 827 827 827 826 826 825 824 824 823 822 821 820 819 818 817 816 816 816 816 815 815 814 813 812 811 810 809 808 807 806 805
814 815 816 816 817 817 818 820 821 822 823 823 824 825 827 828 829 829 829 829 829 829 830 830 831 832 832 832 832 832 832 831 831 832 832 832 832 832 832 832 831 831 830 830 829 827 827 828 827 827 826 826 825 825 825 824 824 824 823 822 822 821 820 819 818 816 815 815 814 813 813 812 812 812 811 811 810 809 808 807 806 805 804 803 802
809 808 807 806 806 808 810 812 814 816 818 819 820 822 824 826 827 828 828 828 828 828 828 829 829 830 830 830 830 830 830 830 830 830 830 830 830 830 830 830 829 829 829 828 827 826 825 825 825 825 824 824 823 822 822 821 821 821 820 820 819 818 818 816 815 813 812 811 810 810 810 809 809 808 808 807 806 805 804 804 803 802 801 800 799
800 798 796 795 797 799 802 804 807 811 814 816 818 819 821 823 825 826 827 827 827 827 827 827 828 828 828 828 828 828 828 828 828 829 829 829 828 827 828 828 828 827 828 827 826 825 824 823 823 822 821 821 820 820 819 819 818 818 817 817 816 816 815 814 812 811 810 809 807 807 807 806 805 804 804 803 802 801 800 799 799 798 797 796 795
790 787 787 789 792 794 797 800 802 807 811 814 816 817 818 821 822 823 824 825 825 825 825 825 825 826 826 826 826 826 826 826 826 826 827 827 826 826 826 826 826 826 827 827 826 825 824 822 821 820 819 819 818 817 817 816 816 815 814 813 813 812 812 811 809 808 807 806 805 805 804 802 801 800 799 798 798 797 796 795 794 793 792 792 791
779 779 781 785 787 790 793 796 799 803 808 811 813 815 816 818 819 820 821 822 822 822 822 822 823 823 824 824 824 824 824 824 824 824 824 825 825 825 825 825 825 825 825 825 826 826 825 822 820 818 817 817 816 815 815 814 814 813 812 811 810 809 808 807 806 805 804 803 803 802 800 799 797 796 795 794 793 793 792 791 790 789 788 787 786
772 774 778 781 784 787 790 793 796 799 803 807 810 813 815 816 816 817 819 820 820 820 820 820 821 821 821 822 822 822 822 822 822 822 822 823 823 823 824 824 824 824 823 823 823 824 823 821 819 817 816 815 814 813 813 812 811 810 810 808 807 806 805 804 803 802 801 800 799 798 796 795 793 792 791 790 789 788 787 786 785 784 783 782 781
769 772 776 779 781 784 787 791 794 797 801 803 806 810 814 815 815 815 816 818 818 818 818 818 819 819 819 820 821 821 821 821 821 821 821 821 821 822 822 823 822 822 821 821 821 821 820 819 817 815 814 813 812 811 810 810 809 808 807 806 804 803 802 800 800 798 797 796 795 794 792 791 789 788 787 785 784 783 782 781 780 779 778 777 776
767 770 773 776 779 781 785 788 791 794 798 800 802 807 811 813 813 812 813 815 816 816 815 816 817 817 818 818 819 819 819 819 820 820 820 820 819 820 820 821 821 820 820 820 819 819 817 816 814 813 812 811 810 808 807 807 807 806 805 803 801 799 798 797 796 796 795 793 791 790 788 787 785 784 782 781 780 778 777 776 774 773 772 771 770
764 766 768 772 775 778 782 786 789 792 794 796 799 803 807 810 811 810 810 812 813 814 814 814 814 815 816 816 817 817 818 818 818 818 818 818 817 817 819 820 820 819 818 818 817 816 815 813 812 810 809 809 808 806 805 804 804 804 803 801 798 796 795 794 794 793 792 790 788 786 785 783 781 779 778 776 775 774 772 771 769 768 766 765 765
760 761 764 768 773 776 779 783 787 790 792 794 796 800 804 807 808 808 808 809 810 811 812 812 813 813 814 814 815 815 815 815 816 816 816 816 816 816 817 818 818 817 816 815 815 813 812 811 809 808 807 806 805 804 803 802 802 801 800 799 796 794 793 791 791 790 789 787 785 783 782 781 779 776 775 773 771 770 768 766 764 763 761 760 760
756 758 761 766 771 773 776 780 784 787 789 791 793 797 801 804 806 806 806 807 807 808 809 810 811 812 812 812 813 813 813 813 814 814 814 814 814 814 815 815 815 814 813 813 812 811 810 808 807 806 805 804 803 802 801 800 799 798 797 796 794 792 791 789 787 787 786 784 782 780 779 778 776 773 771 769 767 766 764 761 759 759 758 757 756
754 757 759 764 769 771 773 776 780 783 786 788 790 794 798 801 803 804 805 805 806 806 806 807 808 810 810 811 811 811 811 811 812 811 811 811 811 811 812 812 812 812 811 810 808 807 807 805 804 804 803 801 800 800 798 797 797 796 795 794 792 790 789 786 784 783 783 782 780 777 775 775 773 771 768 766 763 761 759 757 755 754 753 752 751
754 756 758 761 766 769 772 774 778 780 783 785 787 791 795 798 800 801 803 804 804 804 804 804 805 807 808 808 809 809 809 808 809 808 808 808 808 808 808 808 808 808 807 806 805 804 804 803 802 802 801 799 798 797 796 795 795 794 793 792 790 788 787 785 782 780 780 780 778 774 771 770 770 767 764 762 759 757 754 752 750 749 747 746 745
754 756 758 761 764 768 771 773 776 778 781 782 784 788 791 794 796 798 800 801 801 801 801 801 803 804 805 805 806 806 806 806 806 806 806 806 805 805 805 804 804 804 804 803 802 802 802 801 800 798 798 797 796 795 795 794 794 793 791 790 788 787 785 783 780 778 777 777 776 771 767 766 766 764 760 757 755 752 750 747 746 744 742 741 740
754 755 758 761 763 766 769 771 774 777 779 780 782 785 788 790 792 794 796 798 799 799 799 799 800 802 803 803 803 803 804 804 804 804 804 804 803 802 802 801 800 800 800 801 800 800 799 798 797 795 795 795 794 793 793 793 792 791 790 788 787 785 783 781 779 776 774 773 773 769 764 762 763 760 755 753 751 748 745 743 741 739 737 736 734
753 755 758 760 762 764 767 769 773 775 777 778 780 782 785 787 789 792 794 795 796 797 797 797 798 800 801 801 801 802 803 803 803 802 802 802 801 800 800 799 799 798 798 798 797 797 796 795 794 793 793 793 792 791 791 791 790 789 788 786 785 783 781 778 776 774 771 770 770 767 760 758 759 756 751 749 747 743 741 739 736 734 732 730 728
753 754 757 759 761 763 765 767 771 773 775 776 777 779 782 784 787 789 791 792 793 794 794 795 796 797 798 798 799 800 801 802 802 801 800 799 798 797 797 797 798 796 795 795 794 794 793 792 791 791 790 789 789 788 788 788 787 786 785 784 783 781 779 776 773 770 768 766 766 764 758 754 755 752 748 746 744 740 737 735 731 729 727 725 723
752 754 756 757 759 761 763 765 767 769 771 772 774 776 779 782 784 786 787 788 790 791 792 792 793 794 794 795 795 795 797 799 800 799 798 797 795 794 795 795 795 794 793 792 791 790 789 788 788 787 786 786 786 785 785 785 784 784 783 782 780 778 776 773 769 767 765 763 762 761 756 752 751 749 745 743 741 737 733 729 727 725 722 720 717
749 752 754 756 758 759 762 764 765 767 768 769 771 774 777 779 782 783 785 786 787 789 789 790 790 791 792 792 791 792 794 796 797 797 796 795 793 793 793 793 793 792 790 790 788 787 786 785 785 785 784 783 782 782 782 781 781 781 780 778 777 775 773 770 767 764 762 759 759 758 754 750 749 748 744 739 736 733 729 726 723 720 717 714 710
747 750 752 754 756 758 761 763 764 765 766 767 769 772 775 777 779 781 783 784 785 787 788 789 789 789 790 790 790 791 793 794 795 795 794 793 792 792 792 792 791 789 788 787 786 785 785 784 783 782 782 781 780 779 779 778 777 776 775 773 772 771 770 767 763 761 758 755 755 755 752 749 748 747 744 739 732 728 725 722 718 715 712 708 704